ASTRA 2D

Last updated on Sat Jan 14 2023 00:02:44 GMT+0000 (Coordinated Universal Time)

1 26638U 00081A 23012.27667747 .00000143 00000+0 00000+0 0 9994 2 26638 7.7344 58.8691 0001847 227.3965 308.5863 1.00276875 40354
UTC large
Height (km)
Speed (km/s)
/
Latitude / Longitude
Inclination (degrees)
Orbital Period (minutes)
Azimuth
Elevation
Range (km)
Doppler Factor

Next 0 passes for location: London (51.5072 / 0.1276)

Sorry there are no passes over London.